M I D A S
Marine Information and Data Acquisition System
Tripno 1183 of the Zeeleeuw from 2006-12-22 08:53:50 to 2006-12-22 12:16:46
Back to CruiseResearch ActivitiesStationsMapUnderway DataData graphs

EquipmentUnitsComments
TimeDGPSUTC
LatitudeDGPSDM.mWGS84
LongitudeDGPSDM.mWGS84
SpeedMeteo Stationm/sRelative wind speed
DirectionMeteo StationdegRelative wind direction
TemperatureMeteo Stationdeg CelciusAir temperature
PressureMeteo StationPaAtmospheric pressure
HumidityMeteo Station%Relative humidity
Missing or incorrect values are displayed as -999
Metereological data collected by the RV Zeeleeuw from 2006-12-22 07:35:38 to 2006-12-22 12:28:48
                                                                                    Next 1000 lines
Time Latitude Longitude Speed Direction Temperature Pressure Humidity
2006-12-22 07:35:48 51°13.599 2°56.09 -999 -999 -999 -999 -999
2006-12-22 07:35:54 51°13.6 2°56.088 -999 -999 -999 -999 -999
2006-12-22 07:35:58 51°13.6 2°56.086 -999 -999 -999 -999 -999
2006-12-22 07:36:02 51°13.601 2°56.084 -999 -999 -999 -999 -999
2006-12-22 07:36:08 51°13.602 2°56.079 -999 -999 -999 -999 -999
2006-12-22 07:36:13 51°13.602 2°56.075 -999 -999 -999 -999 -999
2006-12-22 07:36:18 51°13.604 2°56.07 -999 -999 -999 -999 -999
2006-12-22 07:36:24 51°13.605 2°56.064 -999 -999 -999 -999 -999
2006-12-22 07:36:29 51°13.607 2°56.058 -999 -999 -999 -999 -999
2006-12-22 07:36:33 51°13.608 2°56.052 -999 -999 -999 -999 -999
2006-12-22 07:36:39 51°13.61 2°56.044 -999 -999 -999 -999 -999
2006-12-22 07:36:44 51°13.611 2°56.036 -999 -999 -999 -999 -999
2006-12-22 07:36:49 51°13.613 2°56.028 -999 -999 -999 -999 -999
2006-12-22 07:36:54 51°13.615 2°56.019 -999 -999 -999 -999 -999
2006-12-22 07:36:59 51°13.617 2°56.01 -999 -999 -999 -999 -999
2006-12-22 07:37:04 51°13.62 2°56.001 -999 -999 -999 -999 -999
2006-12-22 07:37:08 51°13.621 2°55.994 -999 -999 -999 -999 -999
2006-12-22 07:37:12 51°13.624 2°55.986 -999 -999 -999 -999 -999
2006-12-22 07:37:18 51°13.628 2°55.974 -999 -999 -999 -999 -999
2006-12-22 07:37:24 51°13.632 2°55.962 -999 -999 -999 -999 -999
2006-12-22 07:37:29 51°13.636 2°55.952 -999 -999 -999 -999 -999
2006-12-22 07:37:34 51°13.64 2°55.942 -999 -999 -999 -999 -999
2006-12-22 07:37:38 51°13.643 2°55.934 -999 -999 -999 -999 -999
2006-12-22 07:37:43 51°13.648 2°55.924 -999 -999 -999 -999 -999
2006-12-22 07:37:49 51°13.653 2°55.911 -999 -999 -999 -999 -999
2006-12-22 07:37:53 51°13.657 2°55.903 -999 -999 -999 -999 -999
2006-12-22 07:37:58 51°13.662 2°55.893 -999 -999 -999 -999 -999
2006-12-22 07:38:03 51°13.668 2°55.883 -999 -999 -999 -999 -999
2006-12-22 07:38:08 51°13.673 2°55.872 -999 -999 -999 -999 -999
2006-12-22 07:38:13 51°13.679 2°55.862 -999 -999 -999 -999 -999
2006-12-22 07:38:19 51°13.685 2°55.85 -999 -999 -999 -999 -999
2006-12-22 07:38:24 51°13.69 2°55.841 -999 -999 -999 -999 -999
2006-12-22 07:38:28 51°13.694 2°55.833 -999 -999 -999 -999 -999
2006-12-22 07:38:33 51°13.699 2°55.822 -999 -999 -999 -999 -999
2006-12-22 07:38:39 51°13.704 2°55.81 -999 -999 -999 -999 -999
2006-12-22 07:38:43 51°13.707 2°55.802 -999 -999 -999 -999 -999
2006-12-22 07:38:48 51°13.711 2°55.791 -999 -999 -999 -999 -999
2006-12-22 07:38:53 51°13.714 2°55.781 -999 -999 -999 -999 -999
2006-12-22 07:38:59 51°13.718 2°55.769 -999 -999 -999 -999 -999
2006-12-22 07:39:03 51°13.72 2°55.761 -999 -999 -999 -999 -999
2006-12-22 07:39:08 51°13.722 2°55.752 -999 -999 -999 -999 -999
2006-12-22 07:39:13 51°13.723 2°55.743 -999 -999 -999 -999 -999
2006-12-22 07:39:18 51°13.725 2°55.735 -999 -999 -999 -999 -999
2006-12-22 07:39:23 51°13.726 2°55.727 -999 -999 -999 -999 -999
2006-12-22 07:39:28 51°13.727 2°55.719 -999 -999 -999 -999 -999
2006-12-22 07:39:33 51°13.728 2°55.712 -999 -999 -999 -999 -999
2006-12-22 07:39:38 51°13.729 2°55.706 -999 -999 -999 -999 -999
2006-12-22 07:39:43 51°13.729 2°55.702 -999 -999 -999 -999 -999
2006-12-22 07:39:48 51°13.73 2°55.701 -999 -999 -999 -999 -999
2006-12-22 07:39:53 51°13.731 2°55.701 -999 -999 -999 -999 -999
2006-12-22 07:39:58 51°13.732 2°55.703 -999 -999 -999 -999 -999
2006-12-22 07:40:03 51°13.733 2°55.706 -999 -999 -999 -999 -999
2006-12-22 07:40:08 51°13.735 2°55.709 -999 -999 -999 -999 -999
2006-12-22 07:40:13 51°13.736 2°55.711 -999 -999 -999 -999 -999
2006-12-22 07:40:18 51°13.738 2°55.713 -999 -999 -999 -999 -999
2006-12-22 07:40:23 51°13.738 2°55.713 -999 -999 -999 -999 -999
2006-12-22 07:40:28 51°13.738 2°55.713 -999 -999 -999 -999 -999
2006-12-22 07:40:33 51°13.738 2°55.712 -999 -999 -999 -999 -999
2006-12-22 07:40:38 51°13.736 2°55.71 -999 -999 -999 -999 -999
2006-12-22 07:40:43 51°13.735 2°55.707 -999 -999 -999 -999 -999
2006-12-22 07:40:48 51°13.732 2°55.705 -999 -999 -999 -999 -999
2006-12-22 07:40:53 51°13.73 2°55.702 -999 -999 -999 -999 -999
2006-12-22 07:40:59 51°13.728 2°55.699 -999 -999 -999 -999 -999
2006-12-22 07:41:04 51°13.727 2°55.697 -999 -999 -999 -999 -999
2006-12-22 07:41:08 51°13.726 2°55.696 -999 -999 -999 -999 -999
2006-12-22 07:41:13 51°13.726 2°55.695 -999 -999 -999 -999 -999
2006-12-22 07:41:18 51°13.727 2°55.695 -999 -999 -999 -999 -999
2006-12-22 07:41:24 51°13.73 2°55.696 -999 -999 -999 -999 -999
2006-12-22 07:41:29 51°13.733 2°55.696 -999 -999 -999 -999 -999
2006-12-22 07:41:33 51°13.737 2°55.695 -999 -999 -999 -999 -999
2006-12-22 07:41:38 51°13.742 2°55.694 -999 -999 -999 -999 -999
2006-12-22 07:41:43 51°13.747 2°55.691 -999 -999 -999 -999 -999
2006-12-22 07:41:48 51°13.752 2°55.688 -999 -999 -999 -999 -999
2006-12-22 07:41:53 51°13.759 2°55.685 -999 -999 -999 -999 -999
2006-12-22 07:41:58 51°13.765 2°55.68 -999 -999 -999 -999 -999
2006-12-22 07:42:03 51°13.772 2°55.676 -999 -999 -999 -999 -999
2006-12-22 07:42:09 51°13.782 2°55.67 -999 -999 -999 -999 -999
2006-12-22 07:42:13 51°13.788 2°55.665 -999 -999 -999 -999 -999
2006-12-22 07:42:18 51°13.797 2°55.66 -999 -999 -999 -999 -999
2006-12-22 07:42:23 51°13.806 2°55.653 -999 -999 -999 -999 -999
2006-12-22 07:42:28 51°13.815 2°55.647 -999 -999 -999 -999 -999
2006-12-22 07:42:33 51°13.825 2°55.64 -999 -999 -999 -999 -999
2006-12-22 07:42:38 51°13.835 2°55.632 -999 -999 -999 -999 -999
2006-12-22 07:42:43 51°13.845 2°55.625 -999 -999 -999 -999 -999
2006-12-22 07:42:48 51°13.855 2°55.617 -999 -999 -999 -999 -999
2006-12-22 07:42:53 51°13.865 2°55.609 -999 -999 -999 -999 -999
2006-12-22 07:42:58 51°13.876 2°55.601 -999 -999 -999 -999 -999
2006-12-22 07:43:03 51°13.887 2°55.593 -999 -999 -999 -999 -999
2006-12-22 07:43:08 51°13.898 2°55.585 -999 -999 -999 -999 -999
2006-12-22 07:43:13 51°13.909 2°55.576 -999 -999 -999 -999 -999
2006-12-22 07:43:18 51°13.921 2°55.568 -999 -999 -999 -999 -999
2006-12-22 07:43:23 51°13.932 2°55.56 -999 -999 -999 -999 -999
2006-12-22 07:43:28 51°13.944 2°55.552 -999 -999 -999 -999 -999
2006-12-22 07:43:33 51°13.956 2°55.544 -999 -999 -999 -999 -999
2006-12-22 07:43:38 51°13.967 2°55.535 -999 -999 -999 -999 -999
2006-12-22 07:43:43 51°13.979 2°55.527 -999 -999 -999 -999 -999
2006-12-22 07:43:48 51°13.991 2°55.519 -999 -999 -999 -999 -999
2006-12-22 07:43:53 51°14.002 2°55.511 -999 -999 -999 -999 -999
2006-12-22 07:43:58 51°14.012 2°55.503 -999 -999 -999 -999 -999
2006-12-22 07:44:04 51°14.025 2°55.494 -999 -999 -999 -999 -999
2006-12-22 07:44:09 51°14.035 2°55.487 -999 -999 -999 -999 -999
2006-12-22 07:44:13 51°14.043 2°55.481 -999 -999 -999 -999 -999
2006-12-22 07:44:18 51°14.054 2°55.474 -999 -999 -999 -999 -999
2006-12-22 07:44:23 51°14.064 2°55.466 -999 -999 -999 -999 -999
2006-12-22 07:44:29 51°14.076 2°55.457 -999 -999 -999 -999 -999
2006-12-22 07:44:33 51°14.085 2°55.451 -999 -999 -999 -999 -999
2006-12-22 07:44:38 51°14.095 2°55.443 -999 -999 -999 -999 -999
2006-12-22 07:44:43 51°14.105 2°55.435 -999 -999 -999 -999 -999
2006-12-22 07:44:48 51°14.116 2°55.427 -999 -999 -999 -999 -999
2006-12-22 07:44:53 51°14.127 2°55.418 -999 -999 -999 -999 -999
2006-12-22 07:44:58 51°14.137 2°55.41 -999 -999 -999 -999 -999
2006-12-22 07:45:04 51°14.15 2°55.4 -999 -999 -999 -999 -999
2006-12-22 07:45:08 51°14.158 2°55.393 -999 -999 -999 -999 -999
2006-12-22 07:45:13 51°14.169 2°55.384 -999 -999 -999 -999 -999
2006-12-22 07:45:18 51°14.179 2°55.374 -999 -999 -999 -999 -999
2006-12-22 07:45:24 51°14.191 2°55.362 -999 -999 -999 -999 -999
2006-12-22 07:45:28 51°14.198 2°55.353 -999 -999 -999 -999 -999
2006-12-22 07:45:33 51°14.208 2°55.342 -999 -999 -999 -999 -999
2006-12-22 07:45:39 51°14.219 2°55.328 -999 -999 -999 -999 -999
2006-12-22 07:45:44 51°14.229 2°55.316 -999 -999 -999 -999 -999
2006-12-22 07:45:49 51°14.238 2°55.304 -999 -999 -999 -999 -999
2006-12-22 07:45:53 51°14.244 2°55.294 -999 -999 -999 -999 -999
2006-12-22 07:45:59 51°14.254 2°55.278 -999 -999 -999 -999 -999
2006-12-22 07:46:03 51°14.261 2°55.266 -999 -999 -999 -999 -999
2006-12-22 07:46:09 51°14.271 2°55.249 -999 -999 -999 -999 -999
2006-12-22 07:46:13 51°14.277 2°55.237 -999 -999 -999 -999 -999
2006-12-22 07:46:18 51°14.285 2°55.221 -999 -999 -999 -999 -999
2006-12-22 07:46:24 51°14.295 2°55.201 -999 -999 -999 -999 -999
2006-12-22 07:46:29 51°14.304 2°55.184 -999 -999 -999 -999 -999
2006-12-22 07:46:33 51°14.31 2°55.17 -999 -999 -999 -999 -999
2006-12-22 07:46:38 51°14.318 2°55.152 -999 -999 -999 -999 -999
2006-12-22 07:46:43 51°14.326 2°55.134 -999 -999 -999 -999 -999
2006-12-22 07:46:48 51°14.335 2°55.116 -999 -999 -999 -999 -999
2006-12-22 07:46:53 51°14.343 2°55.097 -999 -999 -999 -999 -999
2006-12-22 07:46:58 51°14.351 2°55.077 -999 -999 -999 -999 -999
2006-12-22 07:47:03 51°14.36 2°55.058 -999 -999 -999 -999 -999
2006-12-22 07:47:07 51°14.366 2°55.042 -999 -999 -999 -999 -999
2006-12-22 07:47:13 51°14.375 2°55.017 -999 -999 -999 -999 -999
2006-12-22 07:47:18 51°14.382 2°54.995 -999 -999 -999 -999 -999
2006-12-22 07:47:23 51°14.389 2°54.972 -999 -999 -999 -999 -999
2006-12-22 07:47:28 51°14.395 2°54.949 -999 -999 -999 -999 -999
2006-12-22 07:47:33 51°14.401 2°54.924 -999 -999 -999 -999 -999
2006-12-22 07:47:38 51°14.406 2°54.899 -999 -999 -999 -999 -999
2006-12-22 07:47:43 51°14.411 2°54.874 -999 -999 -999 -999 -999
2006-12-22 07:47:48 51°14.415 2°54.848 -999 -999 -999 -999 -999
2006-12-22 07:47:53 51°14.419 2°54.821 -999 -999 -999 -999 -999
2006-12-22 07:47:58 51°14.422 2°54.794 -999 -999 -999 -999 -999
2006-12-22 07:48:03 51°14.425 2°54.767 -999 -999 -999 -999 -999
2006-12-22 07:48:08 51°14.427 2°54.739 -999 -999 -999 -999 -999
2006-12-22 07:48:13 51°14.43 2°54.711 -999 -999 -999 -999 -999
2006-12-22 07:48:18 51°14.432 2°54.683 -999 -999 -999 -999 -999
2006-12-22 07:48:23 51°14.433 2°54.654 -999 -999 -999 -999 -999
2006-12-22 07:48:28 51°14.435 2°54.625 -999 -999 -999 -999 -999
2006-12-22 07:48:33 51°14.435 2°54.595 -999 -999 -999 -999 -999
2006-12-22 07:48:38 51°14.436 2°54.566 -999 -999 -999 -999 -999
2006-12-22 07:48:43 51°14.435 2°54.536 -999 -999 -999 -999 -999
2006-12-22 07:48:48 51°14.435 2°54.506 -999 -999 -999 -999 -999
2006-12-22 07:48:53 51°14.432 2°54.476 -999 -999 -999 -999 -999
2006-12-22 07:48:58 51°14.428 2°54.446 -999 -999 -999 -999 -999
2006-12-22 07:49:03 51°14.422 2°54.417 -999 -999 -999 -999 -999
2006-12-22 07:49:08 51°14.415 2°54.388 -999 -999 -999 -999 -999
2006-12-22 07:49:13 51°14.407 2°54.36 -999 -999 -999 -999 -999
2006-12-22 07:49:18 51°14.399 2°54.333 -999 -999 -999 -999 -999
2006-12-22 07:49:23 51°14.39 2°54.306 -999 -999 -999 -999 -999
2006-12-22 07:49:28 51°14.38 2°54.279 -999 -999 -999 -999 -999
2006-12-22 07:49:33 51°14.37 2°54.253 -999 -999 -999 -999 -999
2006-12-22 07:49:38 51°14.36 2°54.227 -999 -999 -999 -999 -999
2006-12-22 07:49:43 51°14.349 2°54.2 -999 -999 -999 -999 -999
2006-12-22 07:49:48 51°14.339 2°54.174 -999 -999 -999 -999 -999
2006-12-22 07:49:53 51°14.328 2°54.148 -999 -999 -999 -999 -999
2006-12-22 07:49:58 51°14.318 2°54.122 -999 -999 -999 -999 -999
2006-12-22 07:50:03 51°14.308 2°54.096 -999 -999 -999 -999 -999
2006-12-22 07:50:08 51°14.298 2°54.068 -999 -999 -999 -999 -999
2006-12-22 07:50:13 51°14.29 2°54.04 -999 -999 -999 -999 -999
2006-12-22 07:50:18 51°14.282 2°54.012 -999 -999 -999 -999 -999
2006-12-22 07:50:23 51°14.274 2°53.983 -999 -999 -999 -999 -999
2006-12-22 07:50:28 51°14.268 2°53.954 -999 -999 -999 -999 -999
2006-12-22 07:50:33 51°14.261 2°53.925 -999 -999 -999 -999 -999
2006-12-22 07:50:38 51°14.255 2°53.895 -999 -999 -999 -999 -999
2006-12-22 07:50:43 51°14.249 2°53.865 -999 -999 -999 -999 -999
2006-12-22 07:50:48 51°14.243 2°53.835 -999 -999 -999 -999 -999
2006-12-22 07:50:53 51°14.237 2°53.805 -999 -999 -999 -999 -999
2006-12-22 07:50:58 51°14.231 2°53.775 -999 -999 -999 -999 -999
2006-12-22 07:51:03 51°14.225 2°53.745 -999 -999 -999 -999 -999
2006-12-22 07:51:08 51°14.218 2°53.716 -999 -999 -999 -999 -999
2006-12-22 07:51:13 51°14.21 2°53.687 -999 -999 -999 -999 -999
2006-12-22 07:51:18 51°14.201 2°53.658 -999 -999 -999 -999 -999
2006-12-22 07:51:23 51°14.193 2°53.629 -999 -999 -999 -999 -999
2006-12-22 07:51:28 51°14.183 2°53.601 -999 -999 -999 -999 -999
2006-12-22 07:51:33 51°14.174 2°53.572 -999 -999 -999 -999 -999
2006-12-22 07:51:38 51°14.165 2°53.544 -999 -999 -999 -999 -999
2006-12-22 07:51:43 51°14.155 2°53.516 -999 -999 -999 -999 -999
2006-12-22 07:51:48 51°14.146 2°53.487 -999 -999 -999 -999 -999
2006-12-22 07:51:53 51°14.137 2°53.459 -999 -999 -999 -999 -999
2006-12-22 07:51:58 51°14.129 2°53.429 -999 -999 -999 -999 -999
2006-12-22 07:52:03 51°14.12 2°53.4 -999 -999 -999 -999 -999
2006-12-22 07:52:08 51°14.112 2°53.37 -999 -999 -999 -999 -999
2006-12-22 07:52:13 51°14.104 2°53.341 -999 -999 -999 -999 -999
2006-12-22 07:52:18 51°14.097 2°53.311 -999 -999 -999 -999 -999
2006-12-22 07:52:23 51°14.09 2°53.28 -999 -999 -999 -999 -999
2006-12-22 07:52:28 51°14.083 2°53.25 -999 -999 -999 -999 -999
2006-12-22 07:52:33 51°14.076 2°53.22 -999 -999 -999 -999 -999
2006-12-22 07:52:38 51°14.069 2°53.189 -999 -999 -999 -999 -999
2006-12-22 07:52:43 51°14.061 2°53.159 -999 -999 -999 -999 -999
2006-12-22 07:52:48 51°14.052 2°53.13 -999 -999 -999 -999 -999
2006-12-22 07:52:53 51°14.044 2°53.1 -999 -999 -999 -999 -999
2006-12-22 07:52:58 51°14.035 2°53.071 -999 -999 -999 -999 -999
2006-12-22 07:53:03 51°14.026 2°53.041 -999 -999 -999 -999 -999
2006-12-22 07:53:08 51°14.017 2°53.011 -999 -999 -999 -999 -999
2006-12-22 07:53:13 51°14.009 2°52.981 -999 -999 -999 -999 -999
2006-12-22 07:53:18 51°14 2°52.951 -999 -999 -999 -999 -999
2006-12-22 07:53:23 51°13.992 2°52.922 -999 -999 -999 -999 -999
2006-12-22 07:53:28 51°13.984 2°52.891 -999 -999 -999 -999 -999
2006-12-22 07:53:33 51°13.975 2°52.861 -999 -999 -999 -999 -999
2006-12-22 07:53:38 51°13.968 2°52.83 -999 -999 -999 -999 -999
2006-12-22 07:53:43 51°13.959 2°52.8 -999 -999 -999 -999 -999
2006-12-22 07:53:47 51°13.953 2°52.776 -999 -999 -999 -999 -999
2006-12-22 07:53:53 51°13.943 2°52.74 -999 -999 -999 -999 -999
2006-12-22 07:53:58 51°13.934 2°52.71 -999 -999 -999 -999 -999
2006-12-22 07:54:03 51°13.926 2°52.68 -999 -999 -999 -999 -999
2006-12-22 07:54:08 51°13.917 2°52.649 -999 -999 -999 -999 -999
2006-12-22 07:54:13 51°13.908 2°52.62 -999 -999 -999 -999 -999
2006-12-22 07:54:18 51°13.899 2°52.59 -999 -999 -999 -999 -999
2006-12-22 07:54:23 51°13.89 2°52.56 -999 -999 -999 -999 -999
2006-12-22 07:54:28 51°13.881 2°52.53 -999 -999 -999 -999 -999
2006-12-22 07:54:33 51°13.872 2°52.5 -999 -999 -999 -999 -999
2006-12-22 07:54:38 51°13.863 2°52.47 -999 -999 -999 -999 -999
2006-12-22 07:54:43 51°13.854 2°52.44 -999 -999 -999 -999 -999
2006-12-22 07:54:48 51°13.845 2°52.41 -999 -999 -999 -999 -999
2006-12-22 07:54:53 51°13.836 2°52.38 -999 -999 -999 -999 -999
2006-12-22 07:54:58 51°13.827 2°52.35 -999 -999 -999 -999 -999
2006-12-22 07:55:03 51°13.818 2°52.321 -999 -999 -999 -999 -999
2006-12-22 07:55:08 51°13.809 2°52.291 -999 -999 -999 -999 -999
2006-12-22 07:55:13 51°13.8 2°52.261 -999 -999 -999 -999 -999
2006-12-22 07:55:18 51°13.791 2°52.231 -999 -999 -999 -999 -999
2006-12-22 07:55:23 51°13.782 2°52.202 -999 -999 -999 -999 -999
2006-12-22 07:55:28 51°13.773 2°52.172 -999 -999 -999 -999 -999
2006-12-22 07:55:33 51°13.764 2°52.143 -999 -999 -999 -999 -999
2006-12-22 07:55:38 51°13.755 2°52.113 -999 -999 -999 -999 -999
2006-12-22 07:55:43 51°13.745 2°52.083 -999 -999 -999 -999 -999
2006-12-22 07:55:48 51°13.737 2°52.053 -999 -999 -999 -999 -999
2006-12-22 07:55:53 51°13.727 2°52.024 -999 -999 -999 -999 -999
2006-12-22 07:55:58 51°13.718 2°51.994 -999 -999 -999 -999 -999
2006-12-22 07:56:03 51°13.708 2°51.965 -999 -999 -999 -999 -999
2006-12-22 07:56:08 51°13.699 2°51.935 -999 -999 -999 -999 -999
2006-12-22 07:56:13 51°13.689 2°51.906 -999 -999 -999 -999 -999
2006-12-22 07:56:18 51°13.68 2°51.876 -999 -999 -999 -999 -999
2006-12-22 07:56:23 51°13.671 2°51.847 -999 -999 -999 -999 -999
2006-12-22 07:56:28 51°13.662 2°51.817 -999 -999 -999 -999 -999
2006-12-22 07:56:33 51°13.652 2°51.788 -999 -999 -999 -999 -999
2006-12-22 07:56:38 51°13.643 2°51.758 -999 -999 -999 -999 -999
2006-12-22 07:56:43 51°13.634 2°51.728 -999 -999 -999 -999 -999
2006-12-22 07:56:48 51°13.625 2°51.699 -999 -999 -999 -999 -999
2006-12-22 07:56:53 51°13.616 2°51.669 -999 -999 -999 -999 -999
2006-12-22 07:56:58 51°13.607 2°51.639 -999 -999 -999 -999 -999
2006-12-22 07:57:03 51°13.597 2°51.609 -999 -999 -999 -999 -999
2006-12-22 07:57:08 51°13.588 2°51.579 -999 -999 -999 -999 -999
2006-12-22 07:57:13 51°13.579 2°51.55 -999 -999 -999 -999 -999
2006-12-22 07:57:18 51°13.569 2°51.521 -999 -999 -999 -999 -999
2006-12-22 07:57:23 51°13.559 2°51.492 -999 -999 -999 -999 -999
2006-12-22 07:57:28 51°13.548 2°51.463 -999 -999 -999 -999 -999
2006-12-22 07:57:33 51°13.538 2°51.435 -999 -999 -999 -999 -999
2006-12-22 07:57:38 51°13.527 2°51.406 -999 -999 -999 -999 -999
2006-12-22 07:57:43 51°13.516 2°51.378 -999 -999 -999 -999 -999
2006-12-22 07:57:48 51°13.505 2°51.35 -999 -999 -999 -999 -999
2006-12-22 07:57:53 51°13.494 2°51.321 -999 -999 -999 -999 -999
2006-12-22 07:57:58 51°13.483 2°51.293 -999 -999 -999 -999 -999
2006-12-22 07:58:03 51°13.473 2°51.264 -999 -999 -999 -999 -999
2006-12-22 07:58:08 51°13.462 2°51.235 -999 -999 -999 -999 -999
2006-12-22 07:58:13 51°13.451 2°51.206 -999 -999 -999 -999 -999
2006-12-22 07:58:18 51°13.44 2°51.178 -999 -999 -999 -999 -999
2006-12-22 07:58:23 51°13.43 2°51.149 -999 -999 -999 -999 -999
2006-12-22 07:58:28 51°13.419 2°51.12 -999 -999 -999 -999 -999
2006-12-22 07:58:33 51°13.409 2°51.091 -999 -999 -999 -999 -999
2006-12-22 07:58:38 51°13.398 2°51.062 -999 -999 -999 -999 -999
2006-12-22 07:58:43 51°13.388 2°51.033 -999 -999 -999 -999 -999
2006-12-22 07:58:48 51°13.377 2°51.004 -999 -999 -999 -999 -999
2006-12-22 07:58:53 51°13.366 2°50.976 -999 -999 -999 -999 -999
2006-12-22 07:58:58 51°13.356 2°50.946 -999 -999 -999 -999 -999
2006-12-22 07:59:03 51°13.345 2°50.918 -999 -999 -999 -999 -999
2006-12-22 07:59:08 51°13.335 2°50.888 -999 -999 -999 -999 -999
2006-12-22 07:59:13 51°13.324 2°50.859 -999 -999 -999 -999 -999
2006-12-22 07:59:18 51°13.314 2°50.83 -999 -999 -999 -999 -999
2006-12-22 07:59:23 51°13.303 2°50.801 -999 -999 -999 -999 -999
2006-12-22 07:59:28 51°13.292 2°50.772 -999 -999 -999 -999 -999
2006-12-22 07:59:33 51°13.281 2°50.744 -999 -999 -999 -999 -999
2006-12-22 07:59:38 51°13.27 2°50.715 -999 -999 -999 -999 -999
2006-12-22 07:59:43 51°13.259 2°50.687 -999 -999 -999 -999 -999
2006-12-22 07:59:48 51°13.248 2°50.658 -999 -999 -999 -999 -999
2006-12-22 07:59:53 51°13.236 2°50.63 -999 -999 -999 -999 -999
2006-12-22 07:59:58 51°13.225 2°50.602 -999 -999 -999 -999 -999
2006-12-22 08:00:03 51°13.214 2°50.574 -999 -999 -999 -999 -999
2006-12-22 08:00:08 51°13.203 2°50.545 -999 -999 -999 -999 -999
2006-12-22 08:00:13 51°13.192 2°50.516 -999 -999 -999 -999 -999
2006-12-22 08:00:18 51°13.181 2°50.488 -999 -999 -999 -999 -999
2006-12-22 08:00:23 51°13.17 2°50.459 -999 -999 -999 -999 -999
2006-12-22 08:00:28 51°13.159 2°50.431 -999 -999 -999 -999 -999
2006-12-22 08:00:33 51°13.147 2°50.403 -999 -999 -999 -999 -999
2006-12-22 08:00:38 51°13.136 2°50.374 -999 -999 -999 -999 -999
2006-12-22 08:00:43 51°13.125 2°50.346 -999 -999 -999 -999 -999
2006-12-22 08:00:48 51°13.114 2°50.318 -999 -999 -999 -999 -999
2006-12-22 08:00:53 51°13.103 2°50.289 -999 -999 -999 -999 -999
2006-12-22 08:00:58 51°13.092 2°50.261 -999 -999 -999 -999 -999
2006-12-22 08:01:03 51°13.081 2°50.233 -999 -999 -999 -999 -999
2006-12-22 08:01:08 51°13.069 2°50.205 -999 -999 -999 -999 -999
2006-12-22 08:01:13 51°13.058 2°50.176 -999 -999 -999 -999 -999
2006-12-22 08:01:18 51°13.047 2°50.148 -999 -999 -999 -999 -999
2006-12-22 08:01:23 51°13.036 2°50.12 -999 -999 -999 -999 -999
2006-12-22 08:01:28 51°13.025 2°50.092 -999 -999 -999 -999 -999
2006-12-22 08:01:33 51°13.014 2°50.064 -999 -999 -999 -999 -999
2006-12-22 08:01:38 51°13.003 2°50.036 -999 -999 -999 -999 -999
2006-12-22 08:01:43 51°12.992 2°50.008 -999 -999 -999 -999 -999
2006-12-22 08:01:48 51°12.981 2°49.98 -999 -999 -999 -999 -999
2006-12-22 08:01:53 51°12.97 2°49.951 -999 -999 -999 -999 -999
2006-12-22 08:01:58 51°12.959 2°49.923 -999 -999 -999 -999 -999
2006-12-22 08:02:03 51°12.948 2°49.895 -999 -999 -999 -999 -999
2006-12-22 08:02:08 51°12.936 2°49.866 -999 -999 -999 -999 -999
2006-12-22 08:02:13 51°12.925 2°49.838 -999 -999 -999 -999 -999
2006-12-22 08:02:18 51°12.914 2°49.81 -999 -999 -999 -999 -999
2006-12-22 08:02:23 51°12.903 2°49.781 -999 -999 -999 -999 -999
2006-12-22 08:02:28 51°12.892 2°49.753 -999 -999 -999 -999 -999
2006-12-22 08:02:33 51°12.881 2°49.725 -999 -999 -999 -999 -999
2006-12-22 08:02:38 51°12.87 2°49.697 -999 -999 -999 -999 -999
2006-12-22 08:02:43 51°12.859 2°49.668 -999 -999 -999 -999 -999
2006-12-22 08:02:48 51°12.848 2°49.64 -999 -999 -999 -999 -999
2006-12-22 08:02:53 51°12.836 2°49.612 -999 -999 -999 -999 -999
2006-12-22 08:02:58 51°12.825 2°49.583 -999 -999 -999 -999 -999
2006-12-22 08:03:03 51°12.814 2°49.555 -999 -999 -999 -999 -999
2006-12-22 08:03:07 51°12.805 2°49.532 -999 -999 -999 -999 -999
2006-12-22 08:03:13 51°12.791 2°49.498 -999 -999 -999 -999 -999
2006-12-22 08:03:18 51°12.78 2°49.47 -999 -999 -999 -999 -999
2006-12-22 08:03:23 51°12.768 2°49.441 -999 -999 -999 -999 -999
2006-12-22 08:03:28 51°12.756 2°49.413 -999 -999 -999 -999 -999
2006-12-22 08:03:33 51°12.745 2°49.384 -999 -999 -999 -999 -999
2006-12-22 08:03:38 51°12.733 2°49.355 -999 -999 -999 -999 -999
2006-12-22 08:03:43 51°12.722 2°49.327 -999 -999 -999 -999 -999
2006-12-22 08:03:48 51°12.711 2°49.298 -999 -999 -999 -999 -999
2006-12-22 08:03:53 51°12.699 2°49.269 -999 -999 -999 -999 -999
2006-12-22 08:03:58 51°12.689 2°49.239 -999 -999 -999 -999 -999
2006-12-22 08:04:03 51°12.677 2°49.211 -999 -999 -999 -999 -999
2006-12-22 08:04:08 51°12.666 2°49.181 -999 -999 -999 -999 -999
2006-12-22 08:04:13 51°12.654 2°49.152 -999 -999 -999 -999 -999
2006-12-22 08:04:18 51°12.643 2°49.123 -999 -999 -999 -999 -999
2006-12-22 08:04:23 51°12.632 2°49.094 -999 -999 -999 -999 -999
2006-12-22 08:04:28 51°12.621 2°49.065 -999 -999 -999 -999 -999
2006-12-22 08:04:33 51°12.609 2°49.036 -999 -999 -999 -999 -999
2006-12-22 08:04:38 51°12.598 2°49.006 -999 -999 -999 -999 -999
2006-12-22 08:04:43 51°12.586 2°48.977 -999 -999 -999 -999 -999
2006-12-22 08:04:48 51°12.575 2°48.948 -999 -999 -999 -999 -999
2006-12-22 08:04:53 51°12.563 2°48.919 -999 -999 -999 -999 -999
2006-12-22 08:04:58 51°12.552 2°48.89 -999 -999 -999 -999 -999
2006-12-22 08:05:03 51°12.541 2°48.861 -999 -999 -999 -999 -999
2006-12-22 08:05:08 51°12.529 2°48.832 -999 -999 -999 -999 -999
2006-12-22 08:05:13 51°12.518 2°48.803 -999 -999 -999 -999 -999
2006-12-22 08:05:18 51°12.506 2°48.773 -999 -999 -999 -999 -999
2006-12-22 08:05:23 51°12.495 2°48.745 -999 -999 -999 -999 -999
2006-12-22 08:05:28 51°12.483 2°48.716 -999 -999 -999 -999 -999
2006-12-22 08:05:33 51°12.472 2°48.687 -999 -999 -999 -999 -999
2006-12-22 08:05:38 51°12.461 2°48.658 -999 -999 -999 -999 -999
2006-12-22 08:05:43 51°12.449 2°48.629 -999 -999 -999 -999 -999
2006-12-22 08:05:48 51°12.438 2°48.6 -999 -999 -999 -999 -999
2006-12-22 08:05:53 51°12.426 2°48.571 -999 -999 -999 -999 -999
2006-12-22 08:05:58 51°12.415 2°48.542 -999 -999 -999 -999 -999
2006-12-22 08:06:03 51°12.404 2°48.512 -999 -999 -999 -999 -999
2006-12-22 08:06:08 51°12.393 2°48.483 -999 -999 -999 -999 -999
2006-12-22 08:06:13 51°12.382 2°48.454 -999 -999 -999 -999 -999
2006-12-22 08:06:18 51°12.37 2°48.425 -999 -999 -999 -999 -999
2006-12-22 08:06:23 51°12.359 2°48.396 -999 -999 -999 -999 -999
2006-12-22 08:06:28 51°12.348 2°48.367 -999 -999 -999 -999 -999
2006-12-22 08:06:33 51°12.336 2°48.338 -999 -999 -999 -999 -999
2006-12-22 08:06:38 51°12.325 2°48.309 -999 -999 -999 -999 -999
2006-12-22 08:06:43 51°12.314 2°48.28 -999 -999 -999 -999 -999
2006-12-22 08:06:48 51°12.302 2°48.251 -999 -999 -999 -999 -999
2006-12-22 08:06:53 51°12.291 2°48.223 -999 -999 -999 -999 -999
2006-12-22 08:06:58 51°12.279 2°48.194 -999 -999 -999 -999 -999
2006-12-22 08:07:03 51°12.268 2°48.165 -999 -999 -999 -999 -999
2006-12-22 08:07:08 51°12.257 2°48.136 -999 -999 -999 -999 -999
2006-12-22 08:07:13 51°12.245 2°48.108 -999 -999 -999 -999 -999
2006-12-22 08:07:18 51°12.234 2°48.079 -999 -999 -999 -999 -999
2006-12-22 08:07:23 51°12.223 2°48.05 -999 -999 -999 -999 -999
2006-12-22 08:07:28 51°12.211 2°48.021 -999 -999 -999 -999 -999
2006-12-22 08:07:33 51°12.2 2°47.992 -999 -999 -999 -999 -999
2006-12-22 08:07:38 51°12.189 2°47.963 -999 -999 -999 -999 -999
2006-12-22 08:07:43 51°12.177 2°47.934 -999 -999 -999 -999 -999
2006-12-22 08:07:48 51°12.167 2°47.905 -999 -999 -999 -999 -999
2006-12-22 08:07:53 51°12.155 2°47.876 -999 -999 -999 -999 -999
2006-12-22 08:07:58 51°12.144 2°47.847 -999 -999 -999 -999 -999
2006-12-22 08:08:03 51°12.133 2°47.818 -999 -999 -999 -999 -999
2006-12-22 08:08:08 51°12.122 2°47.788 -999 -999 -999 -999 -999
2006-12-22 08:08:13 51°12.111 2°47.76 -999 -999 -999 -999 -999
2006-12-22 08:08:18 51°12.1 2°47.73 -999 -999 -999 -999 -999
2006-12-22 08:08:23 51°12.089 2°47.701 -999 -999 -999 -999 -999
2006-12-22 08:08:28 51°12.078 2°47.672 -999 -999 -999 -999 -999
2006-12-22 08:08:33 51°12.067 2°47.643 -999 -999 -999 -999 -999
2006-12-22 08:08:38 51°12.056 2°47.614 -999 -999 -999 -999 -999
2006-12-22 08:08:43 51°12.045 2°47.585 -999 -999 -999 -999 -999
2006-12-22 08:08:48 51°12.033 2°47.556 -999 -999 -999 -999 -999
2006-12-22 08:08:53 51°12.022 2°47.527 -999 -999 -999 -999 -999
2006-12-22 08:08:58 51°12.011 2°47.498 -999 -999 -999 -999 -999
2006-12-22 08:09:03 51°12 2°47.469 -999 -999 -999 -999 -999
2006-12-22 08:09:08 51°11.989 2°47.44 -999 -999 -999 -999 -999
2006-12-22 08:09:13 51°11.978 2°47.411 -999 -999 -999 -999 -999
2006-12-22 08:09:18 51°11.967 2°47.381 -999 -999 -999 -999 -999
2006-12-22 08:09:23 51°11.956 2°47.352 -999 -999 -999 -999 -999
2006-12-22 08:09:28 51°11.945 2°47.323 -999 -999 -999 -999 -999
2006-12-22 08:09:33 51°11.934 2°47.294 -999 -999 -999 -999 -999
2006-12-22 08:09:38 51°11.923 2°47.265 -999 -999 -999 -999 -999
2006-12-22 08:09:43 51°11.911 2°47.236 -999 -999 -999 -999 -999
2006-12-22 08:09:48 51°11.901 2°47.207 -999 -999 -999 -999 -999
2006-12-22 08:09:53 51°11.89 2°47.178 -999 -999 -999 -999 -999
2006-12-22 08:09:58 51°11.879 2°47.149 -999 -999 -999 -999 -999
2006-12-22 08:10:03 51°11.868 2°47.12 -999 -999 -999 -999 -999
2006-12-22 08:10:08 51°11.857 2°47.091 -999 -999 -999 -999 -999
2006-12-22 08:10:13 51°11.846 2°47.062 -999 -999 -999 -999 -999
2006-12-22 08:10:18 51°11.835 2°47.033 -999 -999 -999 -999 -999
2006-12-22 08:10:23 51°11.824 2°47.005 -999 -999 -999 -999 -999
2006-12-22 08:10:28 51°11.813 2°46.976 -999 -999 -999 -999 -999
2006-12-22 08:10:33 51°11.802 2°46.947 -999 -999 -999 -999 -999
2006-12-22 08:10:38 51°11.791 2°46.918 -999 -999 -999 -999 -999
2006-12-22 08:10:43 51°11.78 2°46.889 -999 -999 -999 -999 -999
2006-12-22 08:10:48 51°11.769 2°46.861 -999 -999 -999 -999 -999
2006-12-22 08:10:53 51°11.758 2°46.832 -999 -999 -999 -999 -999
2006-12-22 08:10:58 51°11.747 2°46.803 -999 -999 -999 -999 -999
2006-12-22 08:11:03 51°11.737 2°46.774 -999 -999 -999 -999 -999
2006-12-22 08:11:08 51°11.726 2°46.746 -999 -999 -999 -999 -999
2006-12-22 08:11:13 51°11.715 2°46.717 -999 -999 -999 -999 -999
2006-12-22 08:11:18 51°11.704 2°46.688 -999 -999 -999 -999 -999
2006-12-22 08:11:23 51°11.693 2°46.66 -999 -999 -999 -999 -999
2006-12-22 08:11:28 51°11.682 2°46.631 -999 -999 -999 -999 -999
2006-12-22 08:11:33 51°11.671 2°46.603 -999 -999 -999 -999 -999
2006-12-22 08:11:38 51°11.66 2°46.574 -999 -999 -999 -999 -999
2006-12-22 08:11:43 51°11.649 2°46.545 -999 -999 -999 -999 -999
2006-12-22 08:11:48 51°11.638 2°46.517 -999 -999 -999 -999 -999
2006-12-22 08:11:53 51°11.628 2°46.488 -999 -999 -999 -999 -999
2006-12-22 08:11:58 51°11.616 2°46.459 -999 -999 -999 -999 -999
2006-12-22 08:12:03 51°11.606 2°46.431 -999 -999 -999 -999 -999
2006-12-22 08:12:08 51°11.595 2°46.402 -999 -999 -999 -999 -999
2006-12-22 08:12:13 51°11.584 2°46.374 -999 -999 -999 -999 -999
2006-12-22 08:12:18 51°11.573 2°46.345 -999 -999 -999 -999 -999
2006-12-22 08:12:23 51°11.562 2°46.317 -999 -999 -999 -999 -999
2006-12-22 08:12:28 51°11.551 2°46.288 -999 -999 -999 -999 -999
2006-12-22 08:12:33 51°11.54 2°46.26 -999 -999 -999 -999 -999
2006-12-22 08:12:38 51°11.529 2°46.231 -999 -999 -999 -999 -999
2006-12-22 08:12:43 51°11.519 2°46.202 -999 -999 -999 -999 -999
2006-12-22 08:12:48 51°11.508 2°46.175 -999 -999 -999 -999 -999
2006-12-22 08:12:53 51°11.497 2°46.146 -999 -999 -999 -999 -999
2006-12-22 08:12:58 51°11.486 2°46.118 -999 -999 -999 -999 -999
2006-12-22 08:13:03 51°11.475 2°46.089 -999 -999 -999 -999 -999
2006-12-22 08:13:08 51°11.464 2°46.061 -999 -999 -999 -999 -999
2006-12-22 08:13:13 51°11.454 2°46.032 -999 -999 -999 -999 -999
2006-12-22 08:13:18 51°11.445 2°46.003 -999 -999 -999 -999 -999
2006-12-22 08:13:23 51°11.436 2°45.973 -999 -999 -999 -999 -999
2006-12-22 08:13:28 51°11.427 2°45.942 -999 -999 -999 -999 -999
2006-12-22 08:13:33 51°11.419 2°45.912 -999 -999 -999 -999 -999
2006-12-22 08:13:38 51°11.411 2°45.882 -999 -999 -999 -999 -999
2006-12-22 08:13:43 51°11.403 2°45.852 -999 -999 -999 -999 -999
2006-12-22 08:13:48 51°11.395 2°45.821 -999 -999 -999 -999 -999
2006-12-22 08:13:53 51°11.388 2°45.79 -999 -999 -999 -999 -999
2006-12-22 08:13:58 51°11.38 2°45.759 -999 -999 -999 -999 -999
2006-12-22 08:14:03 51°11.372 2°45.729 -999 -999 -999 -999 -999
2006-12-22 08:14:08 51°11.364 2°45.698 -999 -999 -999 -999 -999
2006-12-22 08:14:13 51°11.356 2°45.667 -999 -999 -999 -999 -999
2006-12-22 08:14:18 51°11.347 2°45.637 -999 -999 -999 -999 -999
2006-12-22 08:14:23 51°11.339 2°45.606 -999 -999 -999 -999 -999
2006-12-22 08:14:28 51°11.331 2°45.576 -999 -999 -999 -999 -999
2006-12-22 08:14:33 51°11.322 2°45.546 -999 -999 -999 -999 -999
2006-12-22 08:14:38 51°11.313 2°45.515 -999 -999 -999 -999 -999
2006-12-22 08:14:43 51°11.305 2°45.485 -999 -999 -999 -999 -999
2006-12-22 08:14:48 51°11.296 2°45.454 -999 -999 -999 -999 -999
2006-12-22 08:14:53 51°11.288 2°45.424 -999 -999 -999 -999 -999
2006-12-22 08:14:58 51°11.28 2°45.394 -999 -999 -999 -999 -999
2006-12-22 08:15:03 51°11.272 2°45.363 -999 -999 -999 -999 -999
2006-12-22 08:15:08 51°11.264 2°45.332 -999 -999 -999 -999 -999
2006-12-22 08:15:13 51°11.257 2°45.301 -999 -999 -999 -999 -999
2006-12-22 08:15:18 51°11.25 2°45.27 -999 -999 -999 -999 -999
2006-12-22 08:15:23 51°11.243 2°45.239 -999 -999 -999 -999 -999
2006-12-22 08:15:28 51°11.237 2°45.207 -999 -999 -999 -999 -999
2006-12-22 08:15:33 51°11.23 2°45.175 -999 -999 -999 -999 -999
2006-12-22 08:15:38 51°11.224 2°45.144 -999 -999 -999 -999 -999
2006-12-22 08:15:43 51°11.218 2°45.112 -999 -999 -999 -999 -999
2006-12-22 08:15:48 51°11.212 2°45.08 -999 -999 -999 -999 -999
2006-12-22 08:15:53 51°11.206 2°45.049 -999 -999 -999 -999 -999
2006-12-22 08:15:58 51°11.199 2°45.017 -999 -999 -999 -999 -999
2006-12-22 08:16:03 51°11.193 2°44.985 -999 -999 -999 -999 -999
2006-12-22 08:16:08 51°11.187 2°44.954 -999 -999 -999 -999 -999
2006-12-22 08:16:13 51°11.18 2°44.922 -999 -999 -999 -999 -999
2006-12-22 08:16:18 51°11.174 2°44.89 -999 -999 -999 -999 -999
2006-12-22 08:16:23 51°11.167 2°44.858 -999 -999 -999 -999 -999
2006-12-22 08:16:28 51°11.161 2°44.826 -999 -999 -999 -999 -999
2006-12-22 08:16:33 51°11.155 2°44.794 -999 -999 -999 -999 -999
2006-12-22 08:16:38 51°11.15 2°44.762 -999 -999 -999 -999 -999
2006-12-22 08:16:43 51°11.144 2°44.73 -999 -999 -999 -999 -999
2006-12-22 08:16:48 51°11.139 2°44.698 -999 -999 -999 -999 -999
2006-12-22 08:16:53 51°11.134 2°44.665 -999 -999 -999 -999 -999
2006-12-22 08:16:58 51°11.128 2°44.633 -999 -999 -999 -999 -999
2006-12-22 08:17:03 51°11.123 2°44.601 -999 -999 -999 -999 -999
2006-12-22 08:17:08 51°11.118 2°44.569 -999 -999 -999 -999 -999
2006-12-22 08:17:13 51°11.112 2°44.536 -999 -999 -999 -999 -999
2006-12-22 08:17:18 51°11.107 2°44.504 -999 -999 -999 -999 -999
2006-12-22 08:17:23 51°11.102 2°44.472 -999 -999 -999 -999 -999
2006-12-22 08:17:28 51°11.096 2°44.44 -999 -999 -999 -999 -999
2006-12-22 08:17:33 51°11.09 2°44.407 -999 -999 -999 -999 -999
2006-12-22 08:17:38 51°11.085 2°44.375 -999 -999 -999 -999 -999
2006-12-22 08:17:43 51°11.079 2°44.343 -999 -999 -999 -999 -999
2006-12-22 08:17:48 51°11.073 2°44.311 -999 -999 -999 -999 -999
2006-12-22 08:17:53 51°11.068 2°44.279 -999 -999 -999 -999 -999
2006-12-22 08:17:58 51°11.062 2°44.247 -999 -999 -999 -999 -999
2006-12-22 08:18:03 51°11.056 2°44.214 -999 -999 -999 -999 -999
2006-12-22 08:18:08 51°11.051 2°44.182 -999 -999 -999 -999 -999
2006-12-22 08:18:13 51°11.045 2°44.15 -999 -999 -999 -999 -999
2006-12-22 08:18:18 51°11.04 2°44.117 -999 -999 -999 -999 -999
2006-12-22 08:18:23 51°11.034 2°44.085 -999 -999 -999 -999 -999
2006-12-22 08:18:28 51°11.028 2°44.053 -999 -999 -999 -999 -999
2006-12-22 08:18:33 51°11.023 2°44.02 -999 -999 -999 -999 -999
2006-12-22 08:18:38 51°11.018 2°43.988 -999 -999 -999 -999 -999
2006-12-22 08:18:43 51°11.013 2°43.956 -999 -999 -999 -999 -999
2006-12-22 08:18:48 51°11.007 2°43.923 -999 -999 -999 -999 -999
2006-12-22 08:18:53 51°11.002 2°43.891 -999 -999 -999 -999 -999
2006-12-22 08:18:58 51°10.997 2°43.858 -999 -999 -999 -999 -999
2006-12-22 08:19:03 51°10.992 2°43.826 -999 -999 -999 -999 -999
2006-12-22 08:19:08 51°10.987 2°43.793 -999 -999 -999 -999 -999
2006-12-22 08:19:13 51°10.982 2°43.761 -999 -999 -999 -999 -999
2006-12-22 08:19:18 51°10.976 2°43.729 -999 -999 -999 -999 -999
2006-12-22 08:19:23 51°10.971 2°43.696 -999 -999 -999 -999 -999
2006-12-22 08:19:28 51°10.966 2°43.664 -999 -999 -999 -999 -999
2006-12-22 08:19:33 51°10.961 2°43.631 -999 -999 -999 -999 -999
2006-12-22 08:19:38 51°10.956 2°43.599 -999 -999 -999 -999 -999
2006-12-22 08:19:43 51°10.951 2°43.566 -999 -999 -999 -999 -999
2006-12-22 08:19:48 51°10.946 2°43.534 -999 -999 -999 -999 -999
2006-12-22 08:19:53 51°10.941 2°43.502 -999 -999 -999 -999 -999
2006-12-22 08:19:58 51°10.935 2°43.469 -999 -999 -999 -999 -999
2006-12-22 08:20:03 51°10.93 2°43.437 -999 -999 -999 -999 -999
2006-12-22 08:20:08 51°10.924 2°43.405 -999 -999 -999 -999 -999
2006-12-22 08:20:13 51°10.919 2°43.372 -999 -999 -999 -999 -999
2006-12-22 08:20:18 51°10.914 2°43.34 -999 -999 -999 -999 -999
2006-12-22 08:20:23 51°10.909 2°43.307 -999 -999 -999 -999 -999
2006-12-22 08:20:28 51°10.904 2°43.275 -999 -999 -999 -999 -999
2006-12-22 08:20:33 51°10.899 2°43.242 -999 -999 -999 -999 -999
2006-12-22 08:20:38 51°10.894 2°43.209 -999 -999 -999 -999 -999
2006-12-22 08:20:43 51°10.889 2°43.177 -999 -999 -999 -999 -999
2006-12-22 08:20:48 51°10.883 2°43.145 -999 -999 -999 -999 -999
2006-12-22 08:20:53 51°10.878 2°43.112 -999 -999 -999 -999 -999
2006-12-22 08:20:58 51°10.873 2°43.08 -999 -999 -999 -999 -999
2006-12-22 08:21:03 51°10.868 2°43.047 -999 -999 -999 -999 -999
2006-12-22 08:21:08 51°10.863 2°43.015 -999 -999 -999 -999 -999
2006-12-22 08:21:13 51°10.857 2°42.982 -999 -999 -999 -999 -999
2006-12-22 08:21:18 51°10.852 2°42.95 -999 -999 -999 -999 -999
2006-12-22 08:21:23 51°10.847 2°42.918 -999 -999 -999 -999 -999
2006-12-22 08:21:28 51°10.841 2°42.885 -999 -999 -999 -999 -999
2006-12-22 08:21:33 51°10.836 2°42.853 -999 -999 -999 -999 -999
2006-12-22 08:21:38 51°10.831 2°42.821 -999 -999 -999 -999 -999
2006-12-22 08:21:43 51°10.826 2°42.788 -999 -999 -999 -999 -999
2006-12-22 08:21:48 51°10.821 2°42.755 -999 -999 -999 -999 -999
2006-12-22 08:21:53 51°10.816 2°42.723 -999 -999 -999 -999 -999
2006-12-22 08:21:58 51°10.811 2°42.69 -999 -999 -999 -999 -999
2006-12-22 08:22:03 51°10.806 2°42.658 -999 -999 -999 -999 -999
2006-12-22 08:22:08 51°10.801 2°42.625 -999 -999 -999 -999 -999
2006-12-22 08:22:13 51°10.796 2°42.593 -999 -999 -999 -999 -999
2006-12-22 08:22:18 51°10.791 2°42.56 -999 -999 -999 -999 -999
2006-12-22 08:22:23 51°10.785 2°42.528 -999 -999 -999 -999 -999
2006-12-22 08:22:28 51°10.78 2°42.495 -999 -999 -999 -999 -999
2006-12-22 08:22:33 51°10.775 2°42.462 -999 -999 -999 -999 -999
2006-12-22 08:22:38 51°10.77 2°42.43 -999 -999 -999 -999 -999
2006-12-22 08:22:43 51°10.765 2°42.397 -999 -999 -999 -999 -999
2006-12-22 08:22:48 51°10.76 2°42.365 -999 -999 -999 -999 -999
2006-12-22 08:22:53 51°10.755 2°42.332 -999 -999 -999 -999 -999
2006-12-22 08:22:58 51°10.75 2°42.3 -999 -999 -999 -999 -999
2006-12-22 08:23:03 51°10.745 2°42.267 -999 -999 -999 -999 -999
2006-12-22 08:23:08 51°10.739 2°42.235 -999 -999 -999 -999 -999
2006-12-22 08:23:13 51°10.734 2°42.203 -999 -999 -999 -999 -999
2006-12-22 08:23:18 51°10.729 2°42.17 -999 -999 -999 -999 -999
2006-12-22 08:23:23 51°10.724 2°42.138 -999 -999 -999 -999 -999
2006-12-22 08:23:28 51°10.719 2°42.105 -999 -999 -999 -999 -999
2006-12-22 08:23:33 51°10.714 2°42.072 -999 -999 -999 -999 -999
2006-12-22 08:23:38 51°10.709 2°42.04 -999 -999 -999 -999 -999
2006-12-22 08:23:43 51°10.704 2°42.007 -999 -999 -999 -999 -999
2006-12-22 08:23:48 51°10.699 2°41.975 -999 -999 -999 -999 -999
2006-12-22 08:23:53 51°10.694 2°41.943 -999 -999 -999 -999 -999
2006-12-22 08:23:58 51°10.689 2°41.91 -999 -999 -999 -999 -999
2006-12-22 08:24:03 51°10.684 2°41.878 -999 -999 -999 -999 -999
2006-12-22 08:24:08 51°10.679 2°41.845 -999 -999 -999 -999 -999
2006-12-22 08:24:13 51°10.674 2°41.813 -999 -999 -999 -999 -999
2006-12-22 08:24:18 51°10.669 2°41.78 -999 -999 -999 -999 -999
2006-12-22 08:24:23 51°10.664 2°41.748 -999 -999 -999 -999 -999
2006-12-22 08:24:28 51°10.659 2°41.715 -999 -999 -999 -999 -999
2006-12-22 08:24:33 51°10.653 2°41.683 -999 -999 -999 -999 -999
2006-12-22 08:24:38 51°10.648 2°41.65 -999 -999 -999 -999 -999
2006-12-22 08:24:43 51°10.643 2°41.618 -999 -999 -999 -999 -999
2006-12-22 08:24:48 51°10.637 2°41.586 -999 -999 -999 -999 -999
2006-12-22 08:24:53 51°10.632 2°41.553 -999 -999 -999 -999 -999
2006-12-22 08:24:58 51°10.627 2°41.521 -999 -999 -999 -999 -999
2006-12-22 08:25:03 51°10.622 2°41.488 -999 -999 -999 -999 -999
2006-12-22 08:25:08 51°10.617 2°41.456 -999 -999 -999 -999 -999
2006-12-22 08:25:13 51°10.611 2°41.423 -999 -999 -999 -999 -999
2006-12-22 08:25:18 51°10.606 2°41.391 -999 -999 -999 -999 -999
2006-12-22 08:25:23 51°10.601 2°41.359 -999 -999 -999 -999 -999
2006-12-22 08:25:28 51°10.596 2°41.326 -999 -999 -999 -999 -999
2006-12-22 08:25:33 51°10.591 2°41.294 -999 -999 -999 -999 -999
2006-12-22 08:25:38 51°10.586 2°41.261 -999 -999 -999 -999 -999
2006-12-22 08:25:43 51°10.581 2°41.229 -999 -999 -999 -999 -999
2006-12-22 08:25:48 51°10.576 2°41.196 -999 -999 -999 -999 -999
2006-12-22 08:25:53 51°10.571 2°41.163 -999 -999 -999 -999 -999
2006-12-22 08:25:58 51°10.567 2°41.131 -999 -999 -999 -999 -999
2006-12-22 08:26:03 51°10.562 2°41.098 -999 -999 -999 -999 -999
2006-12-22 08:26:08 51°10.557 2°41.066 -999 -999 -999 -999 -999
2006-12-22 08:26:13 51°10.552 2°41.033 -999 -999 -999 -999 -999
2006-12-22 08:26:18 51°10.547 2°41.001 -999 -999 -999 -999 -999
2006-12-22 08:26:23 51°10.542 2°40.968 -999 -999 -999 -999 -999
2006-12-22 08:26:28 51°10.538 2°40.935 -999 -999 -999 -999 -999
2006-12-22 08:26:33 51°10.533 2°40.903 -999 -999 -999 -999 -999
2006-12-22 08:26:38 51°10.528 2°40.87 -999 -999 -999 -999 -999
2006-12-22 08:26:43 51°10.523 2°40.838 -999 -999 -999 -999 -999
2006-12-22 08:26:48 51°10.518 2°40.805 -999 -999 -999 -999 -999
2006-12-22 08:26:53 51°10.513 2°40.772 -999 -999 -999 -999 -999
2006-12-22 08:26:58 51°10.509 2°40.74 -999 -999 -999 -999 -999
2006-12-22 08:27:03 51°10.503 2°40.707 -999 -999 -999 -999 -999
2006-12-22 08:27:08 51°10.498 2°40.675 -999 -999 -999 -999 -999
2006-12-22 08:27:13 51°10.493 2°40.642 -999 -999 -999 -999 -999
2006-12-22 08:27:18 51°10.488 2°40.61 -999 -999 -999 -999 -999
2006-12-22 08:27:23 51°10.484 2°40.577 -999 -999 -999 -999 -999
2006-12-22 08:27:28 51°10.479 2°40.544 -999 -999 -999 -999 -999
2006-12-22 08:27:33 51°10.474 2°40.512 -999 -999 -999 -999 -999
2006-12-22 08:27:38 51°10.469 2°40.479 -999 -999 -999 -999 -999
2006-12-22 08:27:43 51°10.464 2°40.446 -999 -999 -999 -999 -999
2006-12-22 08:27:48 51°10.459 2°40.414 -999 -999 -999 -999 -999
2006-12-22 08:27:53 51°10.454 2°40.381 -999 -999 -999 -999 -999
2006-12-22 08:27:58 51°10.449 2°40.349 -999 -999 -999 -999 -999
2006-12-22 08:28:03 51°10.444 2°40.316 -999 -999 -999 -999 -999
2006-12-22 08:28:08 51°10.439 2°40.283 -999 -999 -999 -999 -999
2006-12-22 08:28:13 51°10.434 2°40.251 -999 -999 -999 -999 -999
2006-12-22 08:28:18 51°10.429 2°40.218 -999 -999 -999 -999 -999
2006-12-22 08:28:23 51°10.424 2°40.185 -999 -999 -999 -999 -999
2006-12-22 08:28:28 51°10.419 2°40.152 -999 -999 -999 -999 -999
2006-12-22 08:28:33 51°10.415 2°40.12 -999 -999 -999 -999 -999
2006-12-22 08:28:38 51°10.41 2°40.087 -999 -999 -999 -999 -999
2006-12-22 08:28:43 51°10.405 2°40.054 -999 -999 -999 -999 -999
2006-12-22 08:28:48 51°10.401 2°40.021 -999 -999 -999 -999 -999
2006-12-22 08:28:53 51°10.396 2°39.988 -999 -999 -999 -999 -999
2006-12-22 08:28:58 51°10.392 2°39.956 -999 -999 -999 -999 -999
2006-12-22 08:29:03 51°10.387 2°39.923 -999 -999 -999 -999 -999
2006-12-22 08:29:08 51°10.382 2°39.89 -999 -999 -999 -999 -999
2006-12-22 08:29:13 51°10.378 2°39.857 -999 -999 -999 -999 -999
2006-12-22 08:29:18 51°10.373 2°39.824 -999 -999 -999 -999 -999
2006-12-22 08:29:23 51°10.368 2°39.792 -999 -999 -999 -999 -999
2006-12-22 08:29:28 51°10.364 2°39.759 -999 -999 -999 -999 -999
2006-12-22 08:29:33 51°10.359 2°39.726 -999 -999 -999 -999 -999
2006-12-22 08:29:38 51°10.354 2°39.693 -999 -999 -999 -999 -999
2006-12-22 08:29:43 51°10.35 2°39.66 -999 -999 -999 -999 -999
2006-12-22 08:29:48 51°10.345 2°39.627 -999 -999 -999 -999 -999
2006-12-22 08:29:53 51°10.34 2°39.594 -999 -999 -999 -999 -999
2006-12-22 08:29:58 51°10.335 2°39.561 -999 -999 -999 -999 -999
2006-12-22 08:30:03 51°10.331 2°39.528 -999 -999 -999 -999 -999
2006-12-22 08:30:08 51°10.326 2°39.496 -999 -999 -999 -999 -999
2006-12-22 08:30:13 51°10.322 2°39.463 -999 -999 -999 -999 -999
2006-12-22 08:30:18 51°10.317 2°39.43 -999 -999 -999 -999 -999
2006-12-22 08:30:23 51°10.312 2°39.397 -999 -999 -999 -999 -999
2006-12-22 08:30:28 51°10.308 2°39.364 -999 -999 -999 -999 -999
2006-12-22 08:30:33 51°10.303 2°39.331 -999 -999 -999 -999 -999
2006-12-22 08:30:38 51°10.298 2°39.298 -999 -999 -999 -999 -999
2006-12-22 08:30:43 51°10.294 2°39.265 -999 -999 -999 -999 -999
2006-12-22 08:30:48 51°10.289 2°39.232 -999 -999 -999 -999 -999
2006-12-22 08:30:53 51°10.284 2°39.199 -999 -999 -999 -999 -999
2006-12-22 08:30:58 51°10.279 2°39.166 -999 -999 -999 -999 -999
2006-12-22 08:31:03 51°10.275 2°39.133 -999 -999 -999 -999 -999
2006-12-22 08:31:08 51°10.27 2°39.1 -999 -999 -999 -999 -999
2006-12-22 08:31:13 51°10.265 2°39.067 -999 -999 -999 -999 -999
2006-12-22 08:31:18 51°10.26 2°39.034 -999 -999 -999 -999 -999
2006-12-22 08:31:23 51°10.255 2°39.001 -999 -999 -999 -999 -999
2006-12-22 08:31:28 51°10.251 2°38.968 -999 -999 -999 -999 -999
2006-12-22 08:31:33 51°10.246 2°38.935 -999 -999 -999 -999 -999
2006-12-22 08:31:38 51°10.241 2°38.902 -999 -999 -999 -999 -999
2006-12-22 08:31:43 51°10.236 2°38.869 -999 -999 -999 -999 -999
2006-12-22 08:31:48 51°10.231 2°38.836 -999 -999 -999 -999 -999
2006-12-22 08:31:53 51°10.227 2°38.803 -999 -999 -999 -999 -999
2006-12-22 08:31:58 51°10.222 2°38.77 -999 -999 -999 -999 -999
2006-12-22 08:32:03 51°10.218 2°38.737 -999 -999 -999 -999 -999
2006-12-22 08:32:08 51°10.213 2°38.704 -999 -999 -999 -999 -999
2006-12-22 08:32:13 51°10.208 2°38.671 -999 -999 -999 -999 -999
2006-12-22 08:32:18 51°10.204 2°38.638 -999 -999 -999 -999 -999
2006-12-22 08:32:23 51°10.199 2°38.605 -999 -999 -999 -999 -999
2006-12-22 08:32:28 51°10.195 2°38.572 -999 -999 -999 -999 -999
2006-12-22 08:32:33 51°10.19 2°38.539 -999 -999 -999 -999 -999
2006-12-22 08:32:38 51°10.185 2°38.506 -999 -999 -999 -999 -999
2006-12-22 08:32:43 51°10.18 2°38.473 -999 -999 -999 -999 -999
2006-12-22 08:32:48 51°10.175 2°38.44 -999 -999 -999 -999 -999
2006-12-22 08:32:53 51°10.171 2°38.406 -999 -999 -999 -999 -999
2006-12-22 08:32:58 51°10.166 2°38.373 -999 -999 -999 -999 -999
2006-12-22 08:33:03 51°10.162 2°38.34 -999 -999 -999 -999 -999
2006-12-22 08:33:08 51°10.157 2°38.307 -999 -999 -999 -999 -999
2006-12-22 08:33:13 51°10.152 2°38.274 -999 -999 -999 -999 -999
2006-12-22 08:33:18 51°10.147 2°38.241 -999 -999 -999 -999 -999
2006-12-22 08:33:23 51°10.143 2°38.208 -999 -999 -999 -999 -999
2006-12-22 08:33:28 51°10.138 2°38.175 -999 -999 -999 -999 -999
2006-12-22 08:33:33 51°10.134 2°38.142 -999 -999 -999 -999 -999
2006-12-22 08:33:38 51°10.129 2°38.109 -999 -999 -999 -999 -999
2006-12-22 08:33:43 51°10.125 2°38.076 -999 -999 -999 -999 -999
2006-12-22 08:33:48 51°10.122 2°38.043 -999 -999 -999 -999 -999
2006-12-22 08:33:53 51°10.117 2°38.01 -999 -999 -999 -999 -999
2006-12-22 08:33:58 51°10.113 2°37.976 -999 -999 -999 -999 -999
2006-12-22 08:34:03 51°10.11 2°37.943 -999 -999 -999 -999 -999
2006-12-22 08:34:08 51°10.105 2°37.91 -999 -999 -999 -999 -999
2006-12-22 08:34:13 51°10.101 2°37.877 -999 -999 -999 -999 -999
2006-12-22 08:34:18 51°10.097 2°37.844 -999 -999 -999 -999 -999
2006-12-22 08:34:23 51°10.093 2°37.811 -999 -999 -999 -999 -999
2006-12-22 08:34:28 51°10.089 2°37.778 -999 -999 -999 -999 -999
2006-12-22 08:34:33 51°10.086 2°37.745 -999 -999 -999 -999 -999
2006-12-22 08:34:38 51°10.082 2°37.712 -999 -999 -999 -999 -999
2006-12-22 08:34:43 51°10.078 2°37.678 -999 -999 -999 -999 -999
2006-12-22 08:34:48 51°10.074 2°37.645 -999 -999 -999 -999 -999
2006-12-22 08:34:53 51°10.071 2°37.612 -999 -999 -999 -999 -999
2006-12-22 08:34:58 51°10.067 2°37.579 -999 -999 -999 -999 -999
2006-12-22 08:35:03 51°10.063 2°37.546 -999 -999 -999 -999 -999
2006-12-22 08:35:08 51°10.059 2°37.513 -999 -999 -999 -999 -999
2006-12-22 08:35:13 51°10.055 2°37.48 -999 -999 -999 -999 -999
2006-12-22 08:35:18 51°10.051 2°37.446 -999 -999 -999 -999 -999
2006-12-22 08:35:23 51°10.047 2°37.413 -999 -999 -999 -999 -999
2006-12-22 08:35:28 51°10.043 2°37.38 -999 -999 -999 -999 -999
2006-12-22 08:35:33 51°10.04 2°37.347 -999 -999 -999 -999 -999
2006-12-22 08:35:38 51°10.035 2°37.313 -999 -999 -999 -999 -999
2006-12-22 08:35:43 51°10.032 2°37.28 -999 -999 -999 -999 -999
2006-12-22 08:35:48 51°10.027 2°37.247 -999 -999 -999 -999 -999
2006-12-22 08:35:53 51°10.024 2°37.213 -999 -999 -999 -999 -999
2006-12-22 08:35:58 51°10.02 2°37.179 -999 -999 -999 -999 -999
2006-12-22 08:36:03 51°10.016 2°37.146 -999 -999 -999 -999 -999
2006-12-22 08:36:08 51°10.012 2°37.113 -999 -999 -999 -999 -999
2006-12-22 08:36:13 51°10.008 2°37.079 -999 -999 -999 -999 -999
2006-12-22 08:36:18 51°10.004 2°37.046 -999 -999 -999 -999 -999
2006-12-22 08:36:23 51°10 2°37.012 -999 -999 -999 -999 -999
2006-12-22 08:36:28 51°9.996 2°36.978 -999 -999 -999 -999 -999
2006-12-22 08:36:33 51°9.992 2°36.945 -999 -999 -999 -999 -999
2006-12-22 08:36:38 51°9.989 2°36.911 -999 -999 -999 -999 -999
2006-12-22 08:36:43 51°9.984 2°36.878 -999 -999 -999 -999 -999
2006-12-22 08:36:48 51°9.981 2°36.844 -999 -999 -999 -999 -999
2006-12-22 08:36:53 51°9.977 2°36.811 -999 -999 -999 -999 -999
2006-12-22 08:36:58 51°9.974 2°36.777 -999 -999 -999 -999 -999
2006-12-22 08:37:03 51°9.97 2°36.744 -999 -999 -999 -999 -999
2006-12-22 08:37:08 51°9.967 2°36.71 -999 -999 -999 -999 -999
2006-12-22 08:37:13 51°9.964 2°36.676 -999 -999 -999 -999 -999
2006-12-22 08:37:18 51°9.961 2°36.643 -999 -999 -999 -999 -999
2006-12-22 08:37:23 51°9.958 2°36.609 -999 -999 -999 -999 -999
2006-12-22 08:37:28 51°9.954 2°36.576 -999 -999 -999 -999 -999
2006-12-22 08:37:33 51°9.951 2°36.542 -999 -999 -999 -999 -999
2006-12-22 08:37:38 51°9.948 2°36.509 -999 -999 -999 -999 -999
2006-12-22 08:37:43 51°9.944 2°36.475 -999 -999 -999 -999 -999
2006-12-22 08:37:48 51°9.941 2°36.442 -999 -999 -999 -999 -999
2006-12-22 08:37:53 51°9.938 2°36.408 -999 -999 -999 -999 -999
2006-12-22 08:37:58 51°9.935 2°36.375 -999 -999 -999 -999 -999
2006-12-22 08:38:03 51°9.933 2°36.341 -999 -999 -999 -999 -999
2006-12-22 08:38:08 51°9.931 2°36.308 -999 -999 -999 -999 -999
2006-12-22 08:38:13 51°9.93 2°36.274 -999 -999 -999 -999 -999
2006-12-22 08:38:18 51°9.93 2°36.241 -999 -999 -999 -999 -999
2006-12-22 08:38:23 51°9.93 2°36.207 -999 -999 -999 -999 -999
2006-12-22 08:38:28 51°9.93 2°36.174 -999 -999 -999 -999 -999
2006-12-22 08:38:33 51°9.932 2°36.141 -999 -999 -999 -999 -999
2006-12-22 08:38:38 51°9.935 2°36.108 -999 -999 -999 -999 -999
2006-12-22 08:38:43 51°9.938 2°36.076 -999 -999 -999 -999 -999
2006-12-22 08:38:48 51°9.944 2°36.044 -999 -999 -999 -999 -999
2006-12-22 08:38:53 51°9.949 2°36.013 -999 -999 -999 -999 -999
2006-12-22 08:38:58 51°9.956 2°35.983 -999 -999 -999 -999 -999
2006-12-22 08:39:03 51°9.963 2°35.953 -999 -999 -999 -999 -999
2006-12-22 08:39:08 51°9.971 2°35.923 -999 -999 -999 -999 -999
2006-12-22 08:39:13 51°9.978 2°35.893 -999 -999 -999 -999 -999
2006-12-22 08:39:18 51°9.986 2°35.863 -999 -999 -999 -999 -999
2006-12-22 08:39:23 51°9.994 2°35.834 -999 -999 -999 -999 -999
2006-12-22 08:39:28 51°10.002 2°35.804 -999 -999 -999 -999 -999
2006-12-22 08:39:33 51°10.01 2°35.775 -999 -999 -999 -999 -999
2006-12-22 08:39:38 51°10.018 2°35.745 -999 -999 -999 -999 -999
2006-12-22 08:39:43 51°10.028 2°35.717 -999 -999 -999 -999 -999
2006-12-22 08:39:48 51°10.037 2°35.69 -999 -999 -999 -999 -999
2006-12-22 08:39:53 51°10.048 2°35.663 -999 -999 -999 -999 -999
2006-12-22 08:39:58 51°10.059 2°35.638 -999 -999 -999 -999 -999
2006-12-22 08:40:03 51°10.072 2°35.615 -999 -999 -999 -999 -999
2006-12-22 08:40:08 51°10.085 2°35.593 -999 -999 -999 -999 -999
2006-12-22 08:40:13 51°10.099 2°35.573 -999 -999 -999 -999 -999
2006-12-22 08:40:18 51°10.113 2°35.554 -999 -999 -999 -999 -999
2006-12-22 08:40:23 51°10.128 2°35.536 -999 -999 -999 -999 -999
2006-12-22 08:40:28 51°10.143 2°35.52 -999 -999 -999 -999 -999
2006-12-22 08:40:33 51°10.159 2°35.504 -999 -999 -999 -999 -999
2006-12-22 08:40:38 51°10.175 2°35.491 -999 -999 -999 -999 -999
2006-12-22 08:40:43 51°10.191 2°35.48 -999 -999 -999 -999 -999
2006-12-22 08:40:48 51°10.209 2°35.471 -999 -999 -999 -999 -999
2006-12-22 08:40:53 51°10.226 2°35.464 -999 -999 -999 -999 -999
2006-12-22 08:40:58 51°10.244 2°35.459 -999 -999 -999 -999 -999
2006-12-22 08:41:03 51°10.261 2°35.457 -999 -999 -999 -999 -999
2006-12-22 08:41:08 51°10.279 2°35.454 -999 -999 -999 -999 -999
2006-12-22 08:41:13 51°10.297 2°35.454 -999 -999 -999 -999 -999
2006-12-22 08:41:18 51°10.314 2°35.454 -999 -999 -999 -999 -999
2006-12-22 08:41:23 51°10.332 2°35.454 -999 -999 -999 -999 -999
2006-12-22 08:41:28 51°10.35 2°35.457 -999 -999 -999 -999 -999
2006-12-22 08:41:33 51°10.367 2°35.462 -999 -999 -999 -999 -999
2006-12-22 08:41:38 51°10.384 2°35.468 -999 -999 -999 -999 -999
2006-12-22 08:41:43 51°10.401 2°35.475 -999 -999 -999 -999 -999
2006-12-22 08:41:48 51°10.418 2°35.484 -999 -999 -999 -999 -999
2006-12-22 08:41:53 51°10.434 2°35.495 -999 -999 -999 -999 -999
2006-12-22 08:41:58 51°10.449 2°35.506 -999 -999 -999 -999 -999
2006-12-22 08:42:03 51°10.464 2°35.52 -999 -999 -999 -999 -999
2006-12-22 08:42:08 51°10.479 2°35.534 -999 -999 -999 -999 -999
2006-12-22 08:42:13 51°10.493 2°35.549 -999 -999 -999 -999 -999
2006-12-22 08:42:18 51°10.507 2°35.564 -999 -999 -999 -999 -999
2006-12-22 08:42:23 51°10.521 2°35.58 -999 -999 -999 -999 -999
2006-12-22 08:42:28 51°10.535 2°35.596 -999 -999 -999 -999 -999
2006-12-22 08:42:33 51°10.549 2°35.612 -999 -999 -999 -999 -999
2006-12-22 08:42:38 51°10.563 2°35.629 -999 -999 -999 -999 -999
2006-12-22 08:42:43 51°10.577 2°35.645 -999 -999 -999 -999 -999
2006-12-22 08:42:48 51°10.59 2°35.661 -999 -999 -999 -999 -999
2006-12-22 08:42:53 51°10.604 2°35.677 -999 -999 -999 -999 -999
2006-12-22 08:42:58 51°10.618 2°35.693 -999 -999 -999 -999 -999
2006-12-22 08:43:03 51°10.632 2°35.709 -999 -999 -999 -999 -999
2006-12-22 08:43:08 51°10.647 2°35.725 -999 -999 -999 -999 -999
2006-12-22 08:43:13 51°10.661 2°35.741 -999 -999 -999 -999 -999
2006-12-22 08:43:18 51°10.675 2°35.757 -999 -999 -999 -999 -999
2006-12-22 08:43:23 51°10.689 2°35.773 -999 -999 -999 -999 -999
2006-12-22 08:43:28 51°10.703 2°35.789 -999 -999 -999 -999 -999
2006-12-22 08:43:33 51°10.717 2°35.805 -999 -999 -999 -999 -999
2006-12-22 08:43:38 51°10.731 2°35.822 -999 -999 -999 -999 -999
2006-12-22 08:43:43 51°10.746 2°35.838 -999 -999 -999 -999 -999
2006-12-22 08:43:48 51°10.76 2°35.854 -999 -999 -999 -999 -999
2006-12-22 08:43:53 51°10.774 2°35.87 -999 -999 -999 -999 -999
2006-12-22 08:43:58 51°10.788 2°35.887 -999 -999 -999 -999 -999
2006-12-22 08:44:03 51°10.802 2°35.904 -999 -999 -999 -999 -999
2006-12-22 08:44:08 51°10.816 2°35.92 -999 -999 -999 -999 -999
2006-12-22 08:44:13 51°10.83 2°35.936 -999 -999 -999 -999 -999
2006-12-22 08:44:18 51°10.845 2°35.952 -999 -999 -999 -999 -999
2006-12-22 08:44:23 51°10.859 2°35.969 -999 -999 -999 -999 -999
2006-12-22 08:44:28 51°10.873 2°35.985 -999 -999 -999 -999 -999
2006-12-22 08:44:33 51°10.887 2°36.002 -999 -999 -999 -999 -999
2006-12-22 08:44:38 51°10.901 2°36.018 -999 -999 -999 -999 -999
2006-12-22 08:44:43 51°10.915 2°36.034 -999 -999 -999 -999 -999
2006-12-22 08:44:48 51°10.929 2°36.051 -999 -999 -999 -999 -999
2006-12-22 08:44:53 51°10.943 2°36.067 -999 -999 -999 -999 -999
2006-12-22 08:44:58 51°10.957 2°36.084 -999 -999 -999 -999 -999
2006-12-22 08:45:03 51°10.971 2°36.1 -999 -999 -999 -999 -999
2006-12-22 08:45:08 51°10.985 2°36.117 -999 -999 -999 -999 -999
2006-12-22 08:45:13 51°10.999 2°36.134 -999 -999 -999 -999 -999
2006-12-22 08:45:18 51°11.013 2°36.15 -999 -999 -999 -999 -999
2006-12-22 08:45:23 51°11.027 2°36.168 -999 -999 -999 -999 -999
2006-12-22 08:45:28 51°11.041 2°36.184 -999 -999 -999 -999 -999
2006-12-22 08:45:33 51°11.055 2°36.201 -999 -999 -999 -999 -999
2006-12-22 08:45:38 51°11.069 2°36.218 -999 -999 -999 -999 -999
2006-12-22 08:45:43 51°11.083 2°36.234 -999 -999 -999 -999 -999
2006-12-22 08:45:48 51°11.097 2°36.251 -999 -999 -999 -999 -999
2006-12-22 08:45:53 51°11.111 2°36.267 -999 -999 -999 -999 -999
2006-12-22 08:45:58 51°11.125 2°36.284 -999 -999 -999 -999 -999
2006-12-22 08:46:03 51°11.139 2°36.3 -999 -999 -999 -999 -999
2006-12-22 08:46:08 51°11.153 2°36.317 -999 -999 -999 -999 -999
2006-12-22 08:46:13 51°11.167 2°36.333 -999 -999 -999 -999 -999
2006-12-22 08:46:18 51°11.181 2°36.35 -999 -999 -999 -999 -999
2006-12-22 08:46:23 51°11.195 2°36.367 -999 -999 -999 -999 -999
2006-12-22 08:46:28 51°11.209 2°36.384 -999 -999 -999 -999 -999
2006-12-22 08:46:33 51°11.223 2°36.4 -999 -999 -999 -999 -999
2006-12-22 08:46:38 51°11.237 2°36.417 -999 -999 -999 -999 -999
2006-12-22 08:46:43 51°11.25 2°36.434 -999 -999 -999 -999 -999
2006-12-22 08:46:48 51°11.265 2°36.45 -999 -999 -999 -999 -999
2006-12-22 08:46:53 51°11.279 2°36.467 -999 -999 -999 -999 -999
2006-12-22 08:46:58 51°11.293 2°36.483 -999 -999 -999 -999 -999
2006-12-22 08:47:03 51°11.307 2°36.498 -999 -999 -999 -999 -999
2006-12-22 08:47:08 51°11.322 2°36.514 -999 -999 -999 -999 -999
2006-12-22 08:47:13 51°11.336 2°36.529 -999 -999 -999 -999 -999
2006-12-22 08:47:18 51°11.351 2°36.545 -999 -999 -999 -999 -999
2006-12-22 08:47:23 51°11.365 2°36.561 -999 -999 -999 -999 -999
2006-12-22 08:47:28 51°11.379 2°36.576 -999 -999 -999 -999 -999
2006-12-22 08:47:33 51°11.394 2°36.592 -999 -999 -999 -999 -999
2006-12-22 08:47:38 51°11.408 2°36.608 -999 -999 -999 -999 -999
2006-12-22 08:47:43 51°11.423 2°36.623 -999 -999 -999 -999 -999
2006-12-22 08:47:48 51°11.437 2°36.639 -999 -999 -999 -999 -999
2006-12-22 08:47:53 51°11.451 2°36.655 -999 -999 -999 -999 -999
2006-12-22 08:47:58 51°11.466 2°36.671 -999 -999 -999 -999 -999
2006-12-22 08:48:03 51°11.48 2°36.687 -999 -999 -999 -999 -999
2006-12-22 08:48:08 51°11.495 2°36.702 -999 -999 -999 -999 -999
2006-12-22 08:48:13 51°11.509 2°36.718 -999 -999 -999 -999 -999
2006-12-22 08:48:18 51°11.523 2°36.734 -999 -999 -999 -999 -999
2006-12-22 08:48:23 51°11.538 2°36.75 -999 -999 -999 -999 -999
2006-12-22 08:48:28 51°11.552 2°36.766 -999 -999 -999 -999 -999
2006-12-22 08:48:33 51°11.566 2°36.782 -999 -999 -999 -999 -999
2006-12-22 08:48:38 51°11.581 2°36.798 -999 -999 -999 -999 -999
2006-12-22 08:48:43 51°11.595 2°36.813 -999 -999 -999 -999 -999
2006-12-22 08:48:48 51°11.61 2°36.829 -999 -999 -999 -999 -999
2006-12-22 08:48:53 51°11.624 2°36.845 -999 -999 -999 -999 -999
2006-12-22 08:48:58 51°11.638 2°36.861 -999 -999 -999 -999 -999
2006-12-22 08:49:03 51°11.652 2°36.877 -999 -999 -999 -999 -999
2006-12-22 08:49:08 51°11.667 2°36.892 -999 -999 -999 -999 -999
2006-12-22 08:49:13 51°11.681 2°36.908 -999 -999 -999 -999 -999
2006-12-22 08:49:18 51°11.695 2°36.924 -999 -999 -999 -999 -999
2006-12-22 08:49:23 51°11.71 2°36.94 -999 -999 -999 -999 -999
2006-12-22 08:49:28 51°11.724 2°36.956 -999 -999 -999 -999 -999
2006-12-22 08:49:33 51°11.739 2°36.971 -999 -999 -999 -999 -999
2006-12-22 08:49:38 51°11.753 2°36.986 -999 -999 -999 -999 -999
2006-12-22 08:49:43 51°11.768 2°37.001 -999 -999 -999 -999 -999
2006-12-22 08:49:48 51°11.783 2°37.016 -999 -999 -999 -999 -999
2006-12-22 08:49:53 51°11.797 2°37.03 -999 -999 -999 -999 -999
2006-12-22 08:49:58 51°11.812 2°37.045 -999 -999 -999 -999 -999
2006-12-22 08:50:03 51°11.827 2°37.06 -999 -999 -999 -999 -999
2006-12-22 08:50:08 51°11.842 2°37.074 -999 -999 -999 -999 -999
2006-12-22 08:50:13 51°11.857 2°37.089 -999 -999 -999 -999 -999
2006-12-22 08:50:18 51°11.872 2°37.103 -999 -999 -999 -999 -999
2006-12-22 08:50:23 51°11.887 2°37.118 -999 -999 -999 -999 -999
2006-12-22 08:50:28 51°11.901 2°37.132 -999 -999 -999 -999 -999
2006-12-22 08:50:33 51°11.916 2°37.147 -999 -999 -999 -999 -999
2006-12-22 08:50:38 51°11.931 2°37.162 -999 -999 -999 -999 -999
2006-12-22 08:50:43 51°11.946 2°37.177 -999 -999 -999 -999 -999
2006-12-22 08:50:48 51°11.961 2°37.191 -999 -999 -999 -999 -999
2006-12-22 08:50:53 51°11.976 2°37.205 -999 -999 -999 -999 -999
2006-12-22 08:50:58 51°11.991 2°37.218 -999 -999 -999 -999 -999
2006-12-22 08:51:03 51°12.006 2°37.232 -999 -999 -999 -999 -999
2006-12-22 08:51:08 51°12.021 2°37.245 -999 -999 -999 -999 -999
2006-12-22 08:51:13 51°12.036 2°37.259 -999 -999 -999 -999 -999
2006-12-22 08:51:18 51°12.051 2°37.273 -999 -999 -999 -999 -999
2006-12-22 08:51:23 51°12.067 2°37.287 -999 -999 -999 -999 -999
2006-12-22 08:51:28 51°12.082 2°37.301 -999 -999 -999 -999 -999
2006-12-22 08:51:33 51°12.097 2°37.314 -999 -999 -999 -999 -999
2006-12-22 08:51:38 51°12.112 2°37.328 -999 -999 -999 -999 -999
2006-12-22 08:51:43 51°12.127 2°37.342 -999 -999 -999 -999 -999
2006-12-22 08:51:48 51°12.142 2°37.356 -999 -999 -999 -999 -999
2006-12-22 08:51:53 51°12.157 2°37.37 -999 -999 -999 -999 -999
2006-12-22 08:51:58 51°12.172 2°37.384 -999 -999 -999 -999 -999
2006-12-22 08:52:03 51°12.187 2°37.398 -999 -999 -999 -999 -999
2006-12-22 08:52:08 51°12.203 2°37.411 -999 -999 -999 -999 -999
2006-12-22 08:52:13 51°12.218 2°37.425 -999 -999 -999 -999 -999
2006-12-22 08:52:18 51°12.233 2°37.439 -999 -999 -999 -999 -999
2006-12-22 08:52:23 51°12.248 2°37.452 -999 -999 -999 -999 -999
2006-12-22 08:52:28 51°12.263 2°37.466 -999 -999 -999 -999 -999
2006-12-22 08:52:33 51°12.278 2°37.48 -999 -999 -999 -999 -999
2006-12-22 08:52:38 51°12.294 2°37.494 -999 -999 -999 -999 -999
2006-12-22 08:52:43 51°12.309 2°37.508 -999 -999 -999 -999 -999
2006-12-22 08:52:48 51°12.324 2°37.521 -999 -999 -999 -999 -999
2006-12-22 08:52:53 51°12.339 2°37.535 -999 -999 -999 -999 -999
2006-12-22 08:52:58 51°12.354 2°37.549 -999 -999 -999 -999 -999
2006-12-22 08:53:03 51°12.369 2°37.562 -999 -999 -999 -999 -999
2006-12-22 08:53:08 51°12.384 2°37.576 -999 -999 -999 -999 -999
2006-12-22 08:53:13 51°12.4 2°37.589 -999 -999 -999 -999 -999
2006-12-22 08:53:18 51°12.415 2°37.603 -999 -999 -999 -999 -999
2006-12-22 08:53:23 51°12.43 2°37.617 -999 -999 -999 -999 -999
2006-12-22 08:53:28 51°12.445 2°37.631 -999 -999 -999 -999 -999
2006-12-22 08:53:33 51°12.461 2°37.644 -999 -999 -999 -999 -999
2006-12-22 08:53:38 51°12.476 2°37.658 -999 -999 -999 -999 -999
2006-12-22 08:53:43 51°12.491 2°37.671 -999 -999 -999 -999 -999
2006-12-22 08:53:48 51°12.506 2°37.685 -999 -999 -999 -999 -999
2006-12-22 08:53:53 51°12.521 2°37.699 -999 -999 -999 -999 -999
2006-12-22 08:53:58 51°12.537 2°37.712 -999 -999 -999 -999 -999
2006-12-22 08:54:03 51°12.552 2°37.726 -999 -999 -999 -999 -999
2006-12-22 08:54:08 51°12.567 2°37.739 -999 -999 -999 -999 -999
2006-12-22 08:54:13 51°12.582 2°37.753 -999 -999 -999 -999 -999
2006-12-22 08:54:18 51°12.598 2°37.766 -999 -999 -999 -999 -999
2006-12-22 08:54:23 51°12.613 2°37.78 -999 -999 -999 -999 -999
2006-12-22 08:54:28 51°12.628 2°37.794 -999 -999 -999 -999 -999
2006-12-22 08:54:33 51°12.643 2°37.808 -999 -999 -999 -999 -999
2006-12-22 08:54:38 51°12.659 2°37.821 -999 -999 -999 -999 -999
2006-12-22 08:54:43 51°12.674 2°37.835 -999 -999 -999 -999 -999
2006-12-22 08:54:48 51°12.689 2°37.849 -999 -999 -999 -999 -999
2006-12-22 08:54:53 51°12.705 2°37.862 -999 -999 -999 -999 -999
2006-12-22 08:54:58 51°12.72 2°37.876 -999 -999 -999 -999 -999
2006-12-22 08:55:03 51°12.735 2°37.89 -999 -999 -999 -999 -999
2006-12-22 08:55:08 51°12.75 2°37.903 -999 -999 -999 -999 -999
2006-12-22 08:55:13 51°12.766 2°37.917 -999 -999 -999 -999 -999
2006-12-22 08:55:18 51°12.781 2°37.93 -999 -999 -999 -999 -999
2006-12-22 08:55:23 51°12.796 2°37.943 -999 -999 -999 -999 -999
2006-12-22 08:55:28 51°12.812 2°37.957 -999 -999 -999 -999 -999
2006-12-22 08:55:33 51°12.827 2°37.97 -999 -999 -999 -999 -999
2006-12-22 08:55:38 51°12.842 2°37.984 -999 -999 -999 -999 -999
2006-12-22 08:55:43 51°12.857 2°37.998 -999 -999 -999 -999 -999
2006-12-22 08:55:48 51°12.873 2°38.011 -999 -999 -999 -999 -999
2006-12-22 08:55:53 51°12.888 2°38.025 -999 -999 -999 -999 -999
2006-12-22 08:55:58 51°12.903 2°38.038 -999 -999 -999 -999 -999
2006-12-22 08:56:03 51°12.918 2°38.052 -999 -999 -999 -999 -999
2006-12-22 08:56:08 51°12.934 2°38.065 -999 -999 -999 -999 -999
2006-12-22 08:56:13 51°12.949 2°38.079 -999 -999 -999 -999 -999
2006-12-22 08:56:18 51°12.964 2°38.093 -999 -999 -999 -999 -999
2006-12-22 08:56:23 51°12.98 2°38.106 -999 -999 -999 -999 -999
2006-12-22 08:56:28 51°12.995 2°38.119 -999 -999 -999 -999 -999
2006-12-22 08:56:33 51°13.01 2°38.133 -999 -999 -999 -999 -999
2006-12-22 08:56:38 51°13.026 2°38.146 -999 -999 -999 -999 -999
2006-12-22 08:56:43 51°13.041 2°38.16 -999 -999 -999 -999 -999
2006-12-22 08:56:48 51°13.057 2°38.173 -999 -999 -999 -999 -999
2006-12-22 08:56:53 51°13.072 2°38.187 -999 -999 -999 -999 -999
2006-12-22 08:56:58 51°13.088 2°38.2 -999 -999 -999 -999 -999
2006-12-22 08:57:03 51°13.103 2°38.213 -999 -999 -999 -999 -999
2006-12-22 08:57:08 51°13.119 2°38.227 -999 -999 -999 -999 -999
2006-12-22 08:57:13 51°13.134 2°38.24 -999 -999 -999 -999 -999
2006-12-22 08:57:18 51°13.149 2°38.254 -999 -999 -999 -999 -999
2006-12-22 08:57:23 51°13.165 2°38.267 -999 -999 -999 -999 -999
2006-12-22 08:57:28 51°13.18 2°38.281 -999 -999 -999 -999 -999
2006-12-22 08:57:33 51°13.196 2°38.294 -999 -999 -999 -999 -999
2006-12-22 08:57:38 51°13.211 2°38.307 -999 -999 -999 -999 -999
2006-12-22 08:57:43 51°13.227 2°38.321 -999 -999 -999 -999 -999
2006-12-22 08:57:48 51°13.242 2°38.334 -999 -999 -999 -999 -999
2006-12-22 08:57:53 51°13.257 2°38.348 -999 -999 -999 -999 -999
2006-12-22 08:57:58 51°13.273 2°38.362 -999 -999 -999 -999 -999
2006-12-22 08:58:03 51°13.288 2°38.375 -999 -999 -999 -999 -999
2006-12-22 08:58:08 51°13.304 2°38.389 -999 -999 -999 -999 -999
2006-12-22 08:58:13 51°13.319 2°38.402 -999 -999 -999 -999 -999
2006-12-22 08:58:18 51°13.334 2°38.415 -999 -999 -999 -999 -999
2006-12-22 08:58:23 51°13.35 2°38.429 -999 -999 -999 -999 -999
2006-12-22 08:58:28 51°13.365 2°38.443 -999 -999 -999 -999 -999
2006-12-22 08:58:33 51°13.381 2°38.456 -999 -999 -999 -999 -999
2006-12-22 08:58:38 51°13.396 2°38.47 -999 -999 -999 -999 -999
2006-12-22 08:58:43 51°13.411 2°38.483 -999 -999 -999 -999 -999
2006-12-22 08:58:48 51°13.427 2°38.496 -999 -999 -999 -999 -999
2006-12-22 08:58:53 51°13.443 2°38.509 -999 -999 -999 -999 -999
2006-12-22 08:58:58 51°13.458 2°38.521 -999 -999 -999 -999 -999